Location: Lancaster
(45.1330°N, 74.5000°W)
Time: 14:17:11
(UTC-05:00)

Tiangong 2 - Visible Passes

Search period start: 16 December 2018 00:00
Search period end: 26 December 2018 00:00
Orbit: 383 x 391 km, 42.8° (Epoch: 16 December)

Date Brightness Start Highest point End Pass type
(mag) Time Alt. Az. Time Alt. Az. Time Alt. Az.
19 Dec 3.5 18:06:03 10° S 18:07:19 13° SSE 18:07:19 13° SSE visible
20 Dec 3.6 18:42:29 10° SW 18:43:38 18° SSW 18:43:38 18° SSW visible
21 Dec 2.9 17:44:11 10° SSW 17:46:39 21° SSE 17:47:39 18° SE visible
22 Dec 2.2 18:21:19 10° WSW 18:23:52 37° S 18:23:52 37° S visible
23 Dec 2.4 17:22:47 10° SW 17:25:37 30° SSE 17:27:49 14° ESE visible
23 Dec 3.9 18:59:02 10° WSW 19:00:05 19° WSW 19:00:05 19° WSW visible
24 Dec 1.6 18:00:17 10° WSW 18:03:23 50° S 18:04:00 42° SE visible
25 Dec 2.0 17:01:36 10° WSW 17:04:37 41° SSE 17:07:38 10° E visible
25 Dec 2.6 18:38:06 10° W 18:40:12 35° WSW 18:40:12 35° WSW visible
